Regional Weather Roundup
Issued by NWS

Home | Current Version | Previous Version | Text Only | Print | Product List | Glossary Off
Versions: 1 2 3 4 5 6 7 8 9 10 11 12 13 14 15 16 17 18 19 20 21 22 23 24 25 26 27 28 29 30 31 32 33 34 35 36 37 38 39 40 41 42 43 44 45 46 47 48 49 50

000
ASUS45 KBOU 051307
RWRCO

WEATHER ROUNDUP FOR COLORADO
NATIONAL WEATHER SERVICE DENVER/BOULDER CO
700 AM MDT TUE MAY 05 2015

NOTE: "FAIR" INDICATES FEW OR NO CLOUDS BELOW 12000 FEET WITH NO
SIGNIFICANT WEATHER AND/OR OBSTRUCTIONS TO VISIBILITY.

COZ001>005-013-030-031-051400-
...NORTHWEST COLORADO...

CITY           SKY/WX    TMP DP  RH WIND       PRES   REMARKS
CRAIG          CLEAR     36  33  89 CALM      29.95S
HAYDEN         NOT AVBL
MEEKER         PTCLDY    40  36  86 E5        29.95S
MOUNT WERNER   NOT AVBL
STEAMBOAT SPGS CLEAR     37  34  90 CALM      29.97R
WALDEN         CLOUDY    30  28  93 CALM      30.02S VSB<1/4
$$

COZ006>008-011-051400-
...WEST CENTRAL VALLEYS...

CITY           SKY/WX    TMP DP  RH WIND       PRES   REMARKS
GRAND JUNCTION CLOUDY    54  44  69 E7        29.86F
MONTROSE       CLOUDY    50  45  83 CALM      29.92F
EAGLE          PTCLDY    39  37  93 CALM      30.00S
RIFLE          CLOUDY    46  41  82 CALM      29.91F
DELTA          CLOUDY    53  46  78 CALM      29.90S
NUCLA          DRIZZLE   48  46  93 CALM      29.96F
$$

COZ017>023-064>068-051400-
...SOUTHWEST COLORADO...

CITY           SKY/WX    TMP DP  RH WIND       PRES   REMARKS
DURANGO        LGT RAIN  45  45 100 CALM      29.94S
CORTEZ         LGT RAIN  48  46  93 CALM      29.93S FOG
PAGOSA SPRINGS CLOUDY    43  41  93 SW5       29.97R
TELLURIDE      DRIZZLE   39  39 100 CALM      30.02S
WOLF CREEK PAS NOT AVBL
$$

COZ009-010-012-014-032>034-037-058>063-051400-
...CENTRAL COLORADO...

CITY           SKY/WX    TMP DP  RH WIND       PRES   REMARKS
ASPEN          MOCLDY    41  37  86 CALM      29.97F
BUENA VISTA    NOT AVBL
COPPER MTN     PTCLDY    34  28  80 S13       30.15S WCI  25
BERTHOUD PASS  HAZE      27  19  74 E20       30.18S VSB<1/4 WCI  13
COTTONWOOD PAS SNOW      37  36  93 CALM      30.08F VSB<1/4
GUNNISON       CLOUDY    43  37  81 N5        30.00F
KREMMLING      FOG       36  34  93 CALM      30.02F VSB 1/4
LEADVILLE      CLOUDY    34  34 100 CALM      30.07F
SALIDA         CLOUDY    43  41  95 SW5       30.10S
SUNLIGHT       CLOUDY    37  32  81 CALM      30.12F
WILKERSON PASS FOG       32  32 100 MISG      30.17S VSB 1
$$

COZ069>075-051400-
...SAN LUIS VALLEY/SANGRE DE CRISTO MOUNTAINS...

CITY           SKY/WX    TMP DP  RH WIND       PRES   REMARKS
ALAMOSA        LGT RAIN  42  40  92 SW6       29.98S
LA VETA PASS   MIX PCPN  36  36 100 MISG      30.05F VSB 1/4
SAGUACHE       CLOUDY    45  41  87 CALM      30.00S
$$

COZ035-036-038>040-051400-
...NORTHERN COLORADO FRONT RANGE...

CITY           SKY/WX    TMP DP  RH WIND       PRES   REMARKS
DENVER INTL AP FOG       49  47  93 E12       29.98F VSB 1/2
DMNS CITY PARK   N/A     49  48  96 NW3       29.98S
AURORA         CLOUDY    49  49 100 E2        29.99S
FRONT RANGE AP FOG       50  50 100 E13       29.99  VSB 1/4
ERIE MUNI ARPT CLOUDY    49  48  96 NE3       29.99S FOG
BOULDER MUN AP RAIN      46  46 100 CALM      29.98F
CENTENNIAL     PTSUNNY   48  46  93 W6        29.99S
BROOMFIELD     FOG       48  48 100 CALM      29.99F VSB 1
FORT COLLINS   CLOUDY    46  45  93 SE9       30.01S
LONGMONT       CLOUDY    51  49  93 CALM      30.00F FOG
$$

COZ041-046-047-076>085-087-088-051400-
...PIKES PEAK/PALMER DIVIDE AND SOUTHERN FOOTHILLS...

CITY           SKY/WX    TMP DP  RH WIND       PRES   REMARKS
COLO. SPRINGS  CLOUDY    48  47  96 SE10      30.01R FOG
A. F. ACADEMY  DRIZZLE   46  46 100 CALM      30.00S FOG
ELLICOTT       FOG      N/A N/A N/A MISG      30.00R VSB 1
FALCON         FOG       46  46 100 SE9       30.04R VSB<1/4
FORT CARSON    CLOUDY    49  49 100 E7        29.99R
LIMON          FOG       47  47 100 E7        30.01S VSB 1/4
MONUMENT HILL  CLOUDY    45  43  93 SE3       30.02R FOG
TRINIDAD       CLOUDY    50  49  96 SE5       29.96R
$$

COZ042>045-048>051-090-091-051400-
...NORTHEAST COLORADO...

CITY           SKY/WX    TMP DP  RH WIND       PRES   REMARKS
GREELEY ARPT   CLOUDY    46  43  87 SE10      30.01S
AKRON          FOG       46  46 100 SE8       30.01S VSB 1/2
BURLINGTON     FOG       52  50  93 E8        30.00S VSB<1/4
WRAY           FOG      N/A N/A N/A NE3       30.01F VSB 1/4
STERLING       CLOUDY    48  46  93 CALM      30.01S FOG
HOLYOKE        NOT AVBL
FORT MORGAN    CLOUDY    47  46  95 E7        30.01F FOG
$$

COZ086-089-092>099-051400-
...SOUTHEAST COLORADO...

CITY           SKY/WX    TMP DP  RH WIND       PRES   REMARKS
PUEBLO         LGT RAIN  52  52 100 E13       29.94F FOG
LA JUNTA       RAIN      53  52  96 E15       29.95R FOG
LAMAR          LGT RAIN  55  54  96 E12       29.94S FOG
SPRINGFIELD      N/A     53  53 100 E16       29.94F
$$



USA.gov is the U.S. government's official web portal to all federal, state and local government web resources and services.